Regional Weather Roundup
Issued by NWS Wilmington, NC

Home | Current Version | Previous Version | Text Only | Print | Product List | Glossary On
Versions: 1 2 3 4 5 6 7 8 9 10 11 12 13 14 15 16 17 18 19 20 21 22 23 24 25 26 27 28 29 30 31 32 33 34 35 36 37 38 39 40 41 42 43 44 45 46 47 48 49 50
117
ASUS42 KILM 271313
RWRILM
RWRILM
REGIONAL HOURLY WEATHER ROUNDUP
NATIONAL WEATHER SERVICE WILMINGTON NC
900 AM EDT THU JUL 27 2017

NOTE: "FAIR" INDICATES FEW OR NO CLOUDS BELOW 12,000 FEET WITH NO
SIGNIFICANT WEATHER AND/OR OBSTRUCTIONS TO VISIBILITY.

...............WFO WILMINGTON COUNTY WARNING AREA...............

......COASTAL NC AND SC COUNTIES......

CITY           SKY/WX    TMP DP  RH WIND       PRES   REMARKS
WILMINGTON     MOSUNNY   81  72  74 SE8       30.07S
N MYRTLE BEACH PTSUNNY   82  75  79 SE8       30.07R
MYRTLE BEACH   MOSUNNY   82  75  78 SE12      30.07S

......INLAND NC AND SC COUNTIES.......

CITY           SKY/WX    TMP DP  RH WIND       PRES   REMARKS
LUMBERTON      MOSUNNY   78  73  84 CALM      30.09R
ELIZABETHTOWN  NOT AVBL
WHITEVILLE     SUNNY     78  73  85 CALM      30.08R
FLORENCE       SUNNY     77  74  90 NE3       30.09R
DARLINGTON     SUNNY     78  73  84 VRB3      30.09S
KINGSTREE      FAIR      79  73  83 E3        30.07R
HARTSVILLE     FAIR      77  73  88 CALM      30.09F
BENNETTSVILLE  FAIR      79  75  89 CALM      30.08F
CONWAY         FAIR      79  75  89 SE5       30.07S FOG
GEORGETOWN     PTSUNNY   79  79 100 E5        30.07S
MARION         FAIR      77  72  83 CALM      30.08S

....................REST OF NORTH CAROLINA......................

.........EASTERN NC.........

CITY           SKY/WX    TMP DP  RH WIND       PRES   REMARKS
CAPE HATTERAS  SUNNY     80  67  64 S3        30.08S
JACKSONVILLE   SUNNY     79  74  84 SE3       30.09S
MOREHEAD CITY  SUNNY     82  71  69 CALM      30.08S
KENANSVILLE    MOSUNNY   75  70  83 CALM      30.09S
NEW BERN       SUNNY     80  72  76 S6        30.09S
ELIZABETH CITY PTSUNNY   78  72  81 S6        30.08S

.........CENTRAL NC.........

CITY           SKY/WX    TMP DP  RH WIND       PRES   REMARKS
RALEIGH DURHAM PTSUNNY   78  70  76 SW10      30.09S
ROCKY MOUNT    PTSUNNY   74  71  91 SW5       30.09S
ROANOKE RAPIDS NOT AVBL
FAYETTEVILLE   MOSUNNY   78  74  87 S6        30.08S
HOFFMAN        SUNNY     78  71  80 S9        30.08F

.........WESTERN NC.........

CITY           SKY/WX    TMP DP  RH WIND       PRES   REMARKS
CHARLOTTE      CLOUDY    77  74  90 S9        30.10S
GREENSBORO     CLOUDY    77  73  87 SW10      30.09R
HICKORY        NOT AVBL
BOONE          NOT AVBL
ASHEVILLE      NOT AVBL

.....................REST OF SOUTH CAROLINA.....................

.........EASTERN SC.........

CITY           SKY/WX    TMP DP  RH WIND       PRES   REMARKS
CHARLESTON     MOSUNNY   80  76  87 S6        30.07R
BEAUFORT MCAS  CLOUDY    79  75  87 SE3       30.06R
HILTON HEAD    LGT RAIN  73  73 100 S6        30.06F

.........CENTRAL SC.........

CITY           SKY/WX    TMP DP  RH WIND       PRES   REMARKS
COLUMBIA       CLOUDY    77  74  90 SE6       30.08S
ORANGEBURG     CLOUDY    76  74  93 NE5       30.09R FOG
SUMTER SHAW    PTSUNNY   78  74  86 CALM      30.06F

.........WESTERN SC.........

CITY           SKY/WX    TMP DP  RH WIND       PRES   REMARKS
GREENVILLE     NOT AVBL
ROCK HILL      CLOUDY    76  72  87 SW7       30.11S
ANDERSON       MOSUNNY   76  72  87 CALM      30.10S
CLEMSON        NOT AVBL
GREENWOOD      CLOUDY    75  72  90 S3        30.11R


...................COASTAL AND OFFSHORE REPORTS..................

................LOCAL PIERS AND NC RESERVE................


STATION/POSITION TIME  SKY/WX   TEMP    WIND        PRES    VSBY
                                AIR SEA DIR/SP/G
                 (UTC)          (F)     (DEG/KT/KT) (MB)    (MI)
JOHNY MRCER PIER 1242            81 82  140/  7/  8 1017.4R
NC RESRV MASNBRO NOT AVBL
OCEAN CREST PIER NOT AVBL
SPRINGMAID  PIER 1242                               1017.3F


................COASTAL AND OFFSHORE BUOYS................


STATION/POSITION TIME  SKY/WX   TEMP    WIND        PRES    VSBY
                                AIR SEA DIR/SP/G
                 (UTC)          (F)     (DEG/KT/KT) (MB)    (MI)
DIMNDSHOAL 41025 1250            81 83  210/  2/  2 1018.5
WVE H/P(F/S)=  3/ 8 SWL H/P/D(F/S/D)=  3/ 50/ 8

CAPE LOOKOUT     1200            80     110/  3/  4 1018.1R
ONSLOW BAY 41036 NOT AVBL
ONSLOW BAY 41064 1208            81 84  130/  8/ 12 1018.3R
ONSLOW BAY 41159 1243               84                N/A
WVE H/P(F/S)=  2/ 7

MASNBO INL 41110 1259               81                N/A
WVE H/P(F/S)=  2/ 5

WILM HARBR 41108 1300               81                N/A
WVE H/P(F/S)=  2/ 5

27SE WRITB 41037 1208            82 83  130/ 10/ 12 1017.9S
FRYING PAN 41013 1250            82 82  100/ 10/ 12 1017.8R
WVE H/P(F/S)=  2/ 6 SWL H/P/D(F/S/D)=  2/ 70/ 6

SUNST NRSH 41024 1208            80 82  140/  8/ 10 1017.8S
CAPRS NRSH 41029 1208            81 84  130/  6/  8 1017.5F
EDISTO     41004 1250            81 82  210/ 12/ 17 1017.9R
WVE H/P(F/S)=  2/ 6 SWL H/P/D(F/S/D)=  2/ 40/ 6



..........OFFSHORE BUOYS BEYOND 100 NM OFFSHORE...........
.....IN A TRIANGLE---HAT TO BERMUDA TO BAHAMAS TO HAT.....


STATION/POSITION TIME  SKY/WX   TEMP    WIND        PRES    VSBY
                                AIR SEA DIR/SP/G
                 (UTC)          (F)     (DEG/KT/KT) (MB)    (MI)
150E HAT   41001 1300            78 81  360/  6/  8 1018.1
W BERMUDA  41048 1300            83 84  280/  8/ 10 1017.5
ATLANTIC S 41049 1250            83 84  140/  4/  4 1019.7F
WVE H/P(F/S)=  4/ 8 SWL H/P/D(F/S/D)=  3/120/ 8

E BAHAMAS  41046 1300            83 84  100/  8/ 12 1017.5
NE BAHAMAS 41047 1250            85 85  100/  2/  4 1018.3F
WVE H/P(F/S)=  3/ 7 SWL H/P/D(F/S/D)=  3/120/ 7

120E CANVRL41010 1250            84 85  190/ 10/ 12 1017.5S
WVE H/P(F/S)=  3/ 6 SWL H/P/D(F/S/D)=  2/130/ 6


END




USA.gov is the U.S. government's official web portal to all federal, state and local government web resources and services.